Погода в Цемзаводе

Россия / Ульяновская область     54°00′12″N   48°43′33″E
темп.,
°C
ветер,
м/с
пор.,
м/с
влажн.,
%
обл.,
%
осадки,
мм/ч
давл.,
гПа
погр.,
м
8 августа, пн
пн801:00+20вюв116299 0.0 101911
04:00+19ююв0064100 0.0 102011
07:00+21ссз116345 0.0 102029
10:00+25ссв225018 0.0 1020418
13:00+27ссз124139 0.0 10201741
16:00+27сз334073 0.0 1019949
19:00+25ссв3551100 0.0 1019112
22:00+21юз0161100 0.0 101911
9 августа, вт
вт901:00+21с116349 0.0 102011
04:00+19с117263 0.0 102011
07:00+21ссз1273100 0.0 102055
10:00+24ссв235995 0.0 1020462
13:00+26сз334999 0.0 10201541
16:00+26сз4450100 0.0 1019599
19:00+24вюв2361100 0.0 101970
22:00+21ююв116984 0.0 101912
10 августа, ср
ср1001:00+20зюз117321 0.0 101911
04:00+19юз117471 0.0 101811
07:00+21юз006997 0.0 101935
10:00+25ссз005413 0.0 1019484
13:00+28с114310 0.0 10181582
16:00+27св1239100 0.0 10171264
19:00+26юв0050100 0.1 101711
22:00+20сз3374100 0.8 101826
11 августа, чт
чт1101:00+19с2690100 0.7 1018126
04:00+19сз378898 1.6 1019213
07:00+19сз4886100 0.1 1020399
10:00+20ссз676315 0.2 1020702
13:00+22ссз67480 0.0 10211002
16:00+22ссз79501 0.0 10211076
19:00+20с59530 0.0 1022825
22:00+17ссз22670 0.0 102223
12 августа, пт
пт1201:00+16зсз22695 0.0 102317
04:00+15з22705 0.0 102345
07:00+17з356632 0.0 1024186
10:00+20сз455545 0.0 1024588
13:00+22сз45458 0.0 10231250
16:00+24сз464375 0.0 10221460
19:00+22сз36525 0.0 1021190
22:00+19з22620 0.0 102215